Weather History for KCHK - March, 2013

Change the Weather History Date:

Monday, March 25, 2013

  Actual Average Record
Temperature  
Mean Temperature 35 °F -  
Max Temperature 46 °F 65 °F 89 °F (1976)
Min Temperature 24 °F 40 °F 19 °F (1955)
Degree Days  
Heating Degree Days 30    
Moisture  
Dew Point 21 °F    
Average Humidity 60    
Maximum Humidity 86    
Minimum Humidity 36    
Precipitation  
Precipitation 0.00 in - - ()
Sea Level Pressure  
Sea Level Pressure 30.32 in    
Wind  
Wind Speed 10 mph (NNW)    
Max Wind Speed 23 mph    
Max Gust Speed 30 mph    
Visibility 10 miles    
Events      
Averages and records for this station are not official NWS values.
T = Trace of Precipitation, MM = Missing Value Source: NWS Daily Summary

Daily Weather History Graph

Daily Weather History Graph

Search for Another Location

Airport or City:

Trip Planner

Search our weather history database for the weather conditions in past years. The results will help you decide how hot, cold, wet, or windy it might be!

Date:

Astronomy

Mar. 25, 2013 Rise Set
Actual Time 7:28 AM CDT 7:47 PM CDT
Civil Twilight 7:02 AM CDT 8:13 PM CDT
Nautical Twilight 6:33 AM CDT 8:42 PM CDT
Astronomical Twilight 6:02 AM CDT 9:13 PM CDT
Moon 6:22 PM CDT (3/25) 6:09 AM CDT (3/25)
Length of Visible Light 13h 10m
Length of Day
12h 19m
Waxing Gibbous, 96% of the Moon is Illuminated
Mar 25
Waxing Gibbous
Mar 27
Full
Apr 2
Last Quarter
Apr 10
New
Apr 18
First Quarter

Hourly Weather History & Observations

Time (CDT) Temp. Windchill Dew Point Humidity Pressure Visibility Wind Dir Wind Speed Gust Speed Precip Events Conditions
12:15 AM 30.2 °F 22.6 °F 23.0 °F 75% 30.22 in 10.0 mi NNW 8.1 mph - N/A   Clear
12:35 AM 28.4 °F 22.2 °F 23.0 °F 80% 30.22 in 10.0 mi NNW 5.8 mph - N/A   Scattered Clouds
12:55 AM 28.4 °F 23.3 °F 23.0 °F 80% 30.23 in 10.0 mi NW 4.6 mph - N/A   Scattered Clouds
1:15 AM 26.6 °F 19.1 °F 23.0 °F 86% 30.23 in 10.0 mi NW 6.9 mph - N/A   Clear
1:35 AM 28.4 °F 23.3 °F 23.0 °F 80% 30.23 in 10.0 mi NW 4.6 mph - N/A   Scattered Clouds
1:55 AM 28.4 °F 24.6 °F 21.2 °F 74% 30.23 in 10.0 mi WSW 3.5 mph - N/A   Scattered Clouds
2:15 AM 24.8 °F 17.9 °F 21.2 °F 86% 30.24 in 10.0 mi WSW 5.8 mph - N/A   Scattered Clouds
2:35 AM 26.6 °F 19.1 °F 23.0 °F 86% 30.25 in 10.0 mi WSW 6.9 mph - N/A   Scattered Clouds
2:55 AM 28.4 °F 22.2 °F 23.0 °F 80% 30.25 in 10.0 mi WSW 5.8 mph - N/A   Scattered Clouds
3:15 AM 28.4 °F 23.3 °F 23.0 °F 80% 30.25 in 10.0 mi WSW 4.6 mph - N/A   Mostly Cloudy
3:35 AM 28.4 °F 23.3 °F 23.0 °F 80% 30.24 in 10.0 mi West 4.6 mph - N/A   Scattered Clouds
3:55 AM 28.4 °F 24.6 °F 23.0 °F 80% 30.24 in 10.0 mi West 3.5 mph - N/A   Scattered Clouds
4:15 AM 28.4 °F 22.2 °F 23.0 °F 80% 30.25 in 10.0 mi West 5.8 mph - N/A   Scattered Clouds
4:35 AM 26.6 °F 20.0 °F 21.2 °F 80% 30.25 in 10.0 mi West 5.8 mph - N/A   Scattered Clouds
4:55 AM 26.6 °F 20.0 °F 23.0 °F 86% 30.25 in 10.0 mi WNW 5.8 mph - N/A   Scattered Clouds
5:15 AM 26.6 °F 19.1 °F 21.2 °F 80% 30.26 in 10.0 mi WNW 6.9 mph - N/A   Scattered Clouds
5:35 AM 24.8 °F 16.9 °F 21.2 °F 86% 30.27 in 10.0 mi West 6.9 mph - N/A   Mostly Cloudy
5:55 AM 24.8 °F 17.9 °F 21.2 °F 86% 30.28 in 10.0 mi West 5.8 mph - N/A   Overcast
6:15 AM 24.8 °F 16.9 °F 21.2 °F 86% 30.29 in 10.0 mi NW 6.9 mph - N/A   Mostly Cloudy
6:35 AM 30.2 °F 21.9 °F 26.6 °F 86% 30.30 in 10.0 mi NNW 9.2 mph - N/A   Mostly Cloudy
6:55 AM 30.2 °F 20.2 °F 24.8 °F 80% 30.30 in 10.0 mi North 12.7 mph 18.4 mph N/A   Mostly Cloudy
7:15 AM 30.2 °F 20.2 °F 23.0 °F 75% 30.31 in 10.0 mi North 12.7 mph - N/A   Scattered Clouds
7:35 AM 30.2 °F 20.8 °F 24.8 °F 80% 30.31 in 10.0 mi NNW 11.5 mph - N/A   Clear
7:55 AM 30.2 °F 20.8 °F 23.0 °F 75% 30.32 in 10.0 mi North 11.5 mph - N/A   Clear
8:15 AM 30.2 °F 21.3 °F 23.0 °F 75% 30.33 in 10.0 mi NNW 10.4 mph 17.3 mph N/A   Clear
8:35 AM 32.0 °F 22.5 °F 23.0 °F 69% 30.34 in 10.0 mi NNW 12.7 mph - N/A   Clear
8:55 AM 33.8 °F 24.3 °F 23.0 °F 65% 30.35 in 10.0 mi North 13.8 mph - N/A   Clear
9:15 AM 33.8 °F 21.9 °F 21.2 °F 60% 30.36 in 10.0 mi NNW 21.9 mph 25.3 mph N/A   Clear
9:35 AM 33.8 °F 22.5 °F 19.4 °F 56% 30.37 in 10.0 mi NNW 19.6 mph 24.2 mph N/A   Clear
9:55 AM 35.6 °F 25.9 °F 19.4 °F 52% 30.38 in 10.0 mi North 16.1 mph 21.9 mph N/A   Clear
10:15 AM 35.6 °F 25.2 °F 17.6 °F 48% 30.38 in 10.0 mi NNW 18.4 mph 25.3 mph N/A   Clear
10:35 AM 37.4 °F 27.5 °F 19.4 °F 48% 30.39 in 10.0 mi North 18.4 mph 23.0 mph N/A   Clear
10:55 AM 37.4 °F 28.5 °F 19.4 °F 48% 30.39 in 10.0 mi North 15.0 mph 21.9 mph N/A   Clear
11:15 AM 37.4 °F 27.5 °F 19.4 °F 48% 30.39 in 10.0 mi NNW 18.4 mph 24.2 mph N/A   Clear
11:35 AM 37.4 °F 27.8 °F 17.6 °F 45% 30.38 in 10.0 mi North 17.3 mph 27.6 mph N/A   Clear
11:55 AM 39.2 °F 29.8 °F 17.6 °F 42% 30.38 in 10.0 mi NNW 18.4 mph 26.5 mph N/A   Clear
12:15 PM 41.0 °F 31.9 °F 17.6 °F 39% 30.38 in 10.0 mi North 19.6 mph 26.5 mph N/A   Clear
12:35 PM 41.0 °F 31.1 °F 19.4 °F 42% 30.38 in 10.0 mi North 23.0 mph 29.9 mph N/A   Clear
12:55 PM 41.0 °F 32.8 °F 19.4 °F 42% 30.37 in 10.0 mi North 16.1 mph 26.5 mph N/A   Clear
1:15 PM 42.8 °F 35.8 °F 17.6 °F 36% 30.37 in 10.0 mi North 13.8 mph 28.8 mph N/A   Clear
1:35 PM 42.8 °F 33.8 °F 19.4 °F 39% 30.36 in 10.0 mi NNW 21.9 mph 29.9 mph N/A   Clear
1:55 PM 42.8 °F 34.8 °F 19.4 °F 39% 30.35 in 10.0 mi North 17.3 mph 25.3 mph N/A   Clear
2:15 PM 42.8 °F 34.3 °F 19.4 °F 39% 30.34 in 10.0 mi North 19.6 mph 26.5 mph N/A   Clear
2:35 PM 42.8 °F 36.6 °F 21.2 °F 42% 30.34 in 10.0 mi North 11.5 mph 27.6 mph N/A   Clear
2:55 PM 44.6 °F 37.4 °F 21.2 °F 39% 30.34 in 10.0 mi NNW 16.1 mph 25.3 mph N/A   Clear
3:15 PM 46.4 °F 40.1 °F 21.2 °F 37% 30.33 in 10.0 mi North 15.0 mph 25.3 mph N/A   Clear
3:35 PM 46.4 °F 38.7 °F 21.2 °F 37% 30.32 in 10.0 mi North 20.7 mph 25.3 mph N/A   Clear
3:55 PM 46.4 °F 39.8 °F 21.2 °F 37% 30.32 in 10.0 mi North 16.1 mph 27.6 mph N/A   Clear
4:15 PM 46.4 °F 39.0 °F 21.2 °F 37% 30.31 in 10.0 mi NNW 19.6 mph 28.8 mph N/A   Clear
4:35 PM 46.4 °F 39.5 °F 21.2 °F 37% 30.31 in 10.0 mi NNW 17.3 mph 26.5 mph N/A   Clear
4:55 PM 46.4 °F 39.8 °F 21.2 °F 37% 30.31 in 10.0 mi North 16.1 mph 25.3 mph N/A   Clear
5:15 PM 46.4 °F 39.0 °F 21.2 °F 37% 30.31 in 10.0 mi North 19.6 mph 26.5 mph N/A   Clear
5:35 PM 46.4 °F 39.8 °F 21.2 °F 37% 30.31 in 10.0 mi North 16.1 mph 28.8 mph N/A   Clear
5:55 PM 46.4 °F 39.2 °F 21.2 °F 37% 30.31 in 10.0 mi North 18.4 mph 24.2 mph N/A   Clear
6:15 PM 44.6 °F 35.9 °F 19.4 °F 37% 30.31 in 10.0 mi NNW 23.0 mph 27.6 mph N/A   Clear
6:35 PM 42.8 °F 34.3 °F 19.4 °F 39% 30.32 in 10.0 mi North 19.6 mph 25.3 mph N/A   Clear
6:55 PM 42.8 °F 35.1 °F 19.4 °F 39% 30.33 in 10.0 mi North 16.1 mph 23.0 mph N/A   Clear
7:15 PM 41.0 °F 34.3 °F 19.4 °F 42% 30.34 in 10.0 mi NNW 11.5 mph - N/A   Clear
7:35 PM 39.2 °F 31.6 °F 19.4 °F 45% 30.35 in 10.0 mi North 12.7 mph - N/A   Clear
7:55 PM 37.4 °F 30.8 °F 19.4 °F 48% 30.35 in 10.0 mi North 9.2 mph - N/A   Clear
8:15 PM 33.8 °F 26.4 °F 19.4 °F 56% 30.36 in 10.0 mi North 9.2 mph - N/A   Clear
8:35 PM 33.8 °F 27.0 °F 21.2 °F 60% 30.36 in 10.0 mi North 8.1 mph - N/A   Clear
8:55 PM 32.0 °F 27.5 °F 21.2 °F 64% 30.36 in 10.0 mi North 4.6 mph - N/A   Clear
9:15 PM 33.8 °F 30.8 °F 19.4 °F 56% 30.36 in 10.0 mi NNW 3.5 mph - N/A   Clear
9:35 PM 33.8 °F - 19.4 °F 56% 30.37 in 10.0 mi Calm Calm - N/A   Clear
9:55 PM 32.0 °F - 19.4 °F 60% 30.38 in 10.0 mi Calm Calm - N/A   Clear
10:15 PM 32.0 °F 28.7 °F 19.4 °F 60% 30.38 in 10.0 mi North 3.5 mph - N/A   Clear
10:35 PM 33.8 °F 30.8 °F 21.2 °F 60% 30.39 in 10.0 mi North 3.5 mph - N/A   Clear
10:55 PM 30.2 °F 25.4 °F 21.2 °F 69% 30.39 in 10.0 mi NNE 4.6 mph - N/A   Clear
11:15 PM 30.2 °F 23.4 °F 21.2 °F 69% 30.40 in 10.0 mi NNE 6.9 mph - N/A   Clear
11:35 PM 28.4 °F 19.1 °F 21.2 °F 74% 30.40 in 10.0 mi North 10.4 mph - N/A   Clear
11:55 PM 28.4 °F 19.7 °F 21.2 °F 74% 30.40 in 10.0 mi North 9.2 mph - N/A   Clear